Reflectivity
-20 -20 -20 -20 -20 -20 -20 -20 -20 -20 -20 -20 -20 -20 -20 -20 -20 -20 -20 -20 -20 -20 -20 -20 -20 -20 -20 -20 -20 -20 -20 -20 -20 -20 -20 -20 -20 -20 -20 -20 -20 -20 -20 -20 -20 -20 -20 -20 -20
-20 -20 -20 -20 -20 -20 -20 -20 -20 -20 -20 -20 -20 -20 -20 -20 -20 -20 -20 -20 -20 -20 -20 -20 -20 -20 -20 -20 -20 -20 -20 -20 -20 -20 -20 -20 -20 -20 -20 -20 -20 -20 -20 -20 -20 -20 -20 -20 -20
-20 -20 -20 -20 -20 -20 -20 -20 -20 -20 -20 -20 -20 -20 -20 -20 -20 -20 -20 -20 -20 -20 -20 -20 -20 -20 -20 -20 -20 -20 -20 -20 -20 -20 -20 -20 -20 -20 -20 -20 -20 -20 -20 -20 -20 -20 -20 -20 -20
-20 -20 -20 -20 -20 -20 -20 -20 -20 -20 -20 -20 -20 -20 -20 -20 -20 -20 -20 -20 -20 -20 -20 -20 -20 -20 -20 -20 -20 -20 -20 -20 -20 -20 -20 -20 -20 -20 -20 -20 -20 -20 -20 -20 -20 -20 -20 -20 -20
-20 -20 -20 -20 -20 -20 -20 -20 -20 -20 -20 -20 -20 -20 -20 -20 -20 -20 -20 -20 -20 -20 -20 -20 -20 -20 -20 -20 -20 -20 -20 -20 -20 -20 -20 -20 -20 -20 -20 -20 -20 -20 -20 -20 -20 -20 -20 -20 -20
-20 -20 -20 -20 -20 -20 -20 -20 -20 -20 -20 -20 -20 -20 -20 -20 -20 -20 -20 -20 -20 -20 -20 -20 -20 -20 -20 -20 -20 -20 -20 -20 -20 -20 -20 -20 -20 -20 -20 -20 -20 -20 -20 -20 -20 -20 -20 -20 -20
-20 -20 -20 -20 -20 -20 -20 -20 -20 -20 -20 -20 -20 -20 -20 -20 -20 -20 -20 -20 -20 -20 -20 5 -20 -20 -20 -20 -20 -20 -20 -20 -20 -20 -20 -20 -20 -20 -20 -20 -20 -20 -20 -20 -20 -20 -20 -20 -20
-20 -20 -20 -20 -20 -20 -20 -20 -20 -20 -20 -20 -20 -20 -20 -20 -20 -20 -20 -20 -20 -20 -20 -4 -20 -20 -20 -20 -20 -20 -20 -20 -20 -20 -20 -20 -20 -20 -20 -20 -20 -20 -20 -20 -20 -20 -20 -20 -20
-20 -20 -20 -20 -20 -20 -20 -20 -20 -20 -20 -20 -20 -20 -20 -20 -20 -20 -20 -20 -20 -20 -20 -18 -2 -20 -20 -20 -20 -20 -20 -20 -20 -20 -20 -4 -20 -20 -20 -20 -20 -20 -20 -20 -20 -20 -20 -20 -16
-20 -20 -20 -20 -20 -20 -20 -20 -20 -20 -20 -20 -20 -20 -20 -20 -20 -20 -20 -20 -20 -20 -20 -20 -9 -20 -20 -20 -20 -20 -20 -20 -20 -20 -20 -20 -20 -20 -20 -20 -20 -18 -15 -20 -20 -20 -20 -15 -20
-20 -20 -20 -20 -20 -20 -20 -20 -20 -20 -20 -20 -20 -20 -20 -20 -20 -20 -20 -20 -20 -20 -20 -20 -20 -20 -20 -20 -20 -20 -20 -20 -20 -20 -20 -20 -20 13 -20 7 -4 -3 -20 -20 -20 -20 -20 -20 -20
-20 -20 -20 -20 -20 -20 -20 -20 -20 -20 -20 -20 -20 -20 -20 -20 -20 -20 -20 -20 -20 -20 -20 -20 -20 -20 -20 -20 -20 -20 -20 -20 -20 -20 -19 -3 -10 10 10 0 -19 -0 -20 -20 -20 -20 -20 -20 -20
-20 -20 -20 -20 -20 -20 -20 -20 -20 -20 -20 -20 -20 -20 -20 -20 -20 -20 -20 -20 -20 -20 -20 -20 -19 -20 -20 -20 -20 -20 -20 -20 -20 -20 -20 -20 -20 1 1 9 -13 -20 -4 -20 -6 -20 -20 -20 -20
-20 -20 -20 -20 -20 -20 -20 -20 -20 -20 -20 -20 -20 -20 -20 -20 -20 -20 -20 -20 -20 -20 -20 -20 -20 -20 -20 -20 -20 -20 -20 -20 -20 -20 -20 -13 -20 -20 -9 10 -1 11 -20 -5 -9 -17 -6 -20 -20
-20 -20 -20 -20 -20 -20 -20 -20 -20 -20 -20 -20 -20 -20 -20 -20 -20 -20 -20 -20 -20 -20 -20 -20 -20 -20 -20 -20 -20 -20 -20 -20 -20 -19 -1 -4 -20 -20 -20 -19 11 -20 -20 -16 2 25 5 -3 -9
-20 -20 -20 -20 -20 -20 -20 -20 -20 -20 -20 -20 -20 -20 -20 -20 -20 -20 -20 -20 -20 -20 -20 -20 -20 -20 -20 -20 -20 -20 -20 -20 -20 -20 -20 -20 -14 -20 -10 -18 -18 8 4 -14 2 10 0 -20 -2
-20 -20 -20 -20 -20 -20 -20 -20 -20 -20 -20 -20 -20 -20 -20 -20 -20 -20 -20 -20 -20 -20 -20 -20 -20 -20 -20 22 -11 -20 -20 -20 -20 -20 -20 -17 -17 -20 4 -20 -16 6 5 5 -5 3 6 -15 -10
-20 -20 -20 -20 -20 -20 -20 -20 -20 -20 -20 -20 -20 -20 -20 -20 -20 -20 -20 -20 -20 -20 -20 -20 -20 -20 -20 -20 -2 -12 -20 -20 -20 -20 -20 -20 -12 -4 -2 -5 -7 -9 -6 9 8 -14 -13 -12 -20
-20 -20 -20 -20 -20 -20 -20 -20 -20 -20 -20 -20 -20 -20 -20 -20 -20 -20 -20 -20 -20 -20 -20 -20 -20 -20 -20 -17 -20 22 -20 -20 -20 -20 -20 -20 -20 -1 -20 -20 -10 -20 -20 -16 5 -20 4 6 -3
-20 -20 -20 -20 -20 -20 -20 -20 -20 -20 -20 -20 -20 -20 -20 -20 -20 -20 -20 -20 -20 -20 -20 -20 -20 -20 -20 -20 -20 26 -19 -20 -20 -20 -20 -20 -20 -20 -7 -20 -20 -16 8 1 -11 -18 2 7 2
-20 -20 -20 -20 -20 -20 -20 -20 -20 -20 -20 -20 -20 -20 -20 -20 -20 -10 -20 -20 -20 -20 -20 -20 -20 -20 -20 -19 28 -15 -17 -20 -20 -20 -20 -20 -20 -20 -20 -20 -20 -10 -4 -16 -20 -4 -18 5 -14
-20 -20 -20 -20 -20 -20 -20 -20 -20 -20 -20 -20 -20 -20 -20 -15 -10 -5 4 -8 -17 2 -20 -20 -20 -20 -20 -20 13 3 32 -18 -20 -20 -20 -20 -20 -20 1 -0 -20 2 3 -20 -10 -18 -13 -19 -10
-20 -20 -20 -20 -20 -20 -20 -20 -18 -20 -20 -20 -20 -20 -7 1 2 -10 5 -0 6 12 3 4 -15 -20 -20 -20 7 15 33 -9 -13 -20 -20 -19 -19 -20 -20 -7 1 0 -20 -19 -10 -20 -19 -15 -2
-20 -20 -20 -20 -20 -20 -20 -20 -20 -13 3 -1 -9 -13 3 6 9 2 -5 5 3 14 5 4 -1 -18 -20 -20 -15 32 -1 15 36 27 39 20 13 -0 -20 -5 7 10 10 9 -14 6 -20 -7 26
-20 -20 -20 -20 -20 -20 -20 -20 -15 -12 -3 -11 4 1 -3 2 6 10 1 3 7 13 28 22 15 16 -18 -20 11 18 5 35 34 25 51 42 30 12 -4 -2 -9 13 13 10 12 15 8 -3 -16
-20 -20 -20 -20 -20 -20 -20 -20 -4 -15 -20 -17 -0 -6 -6 -1 4 12 4 5 16 20 26 21 25 28 14 -20 17 26 7 0 33 25 43 41 31 14 15 14 -20 0 -20 18 15 13 12 10 -4
-15 -11 -20 -20 -20 -17 -17 -9 -18 -20 -20 -2 -18 -20 -1 5 19 14 14 25 35 24 28 28 28 28 23 3 -20 21 18 19 -11 7 20 28 24 9 9 12 13 15 2 3 7 21 14 17 8
-20 -20 5 -11 -7 15 -7 -20 -20 -15 -12 -20 4 4 -15 1 17 13 26 35 28 31 31 29 32 30 32 28 29 25 18 0 -1 23 7 8 22 19 -13 -3 -11 17 8 3 7 -1 17 15 4
-0 -9 -4 -12 2 14 9 2 2 1 3 -1 4 6 5 9 10 20 28 31 35 38 30 31 30 27 18 15 -15 1 33 14 32 22 29 12 -14 -20 -20 -1 -9 18 19 19 3 3 5 25 -3
-20 4 12 12 19 17 21 -8 2 4 -13 -6 -19 1 3 8 12 20 21 24 31 33 28 26 28 24 27 19 7 -10 -12 23 30 12 -19 -20 -20 -20 -20 -20 -18 4 -19 -19 -3 14 11 11 11
Wind_Speed
12 13 7 6 8 8 13 6 6 4 5 6 5 6 11 13 10 8 7 14 7 4 16 18 13 14 14 14 14 12 12 13 13 13 13 13 13 12 10 10 10 9 10 9 8 9 7 6 6
13 5 7 7 9 13 10 11 7 2 10 5 6 8 8 9 6 7 12 16 9 7 15 17 12 14 14 14 15 13 12 13 13 13 13 14 13 12 11 9 9 9 9 9 8 8 8 7 7
13 9 10 6 12 13 11 7 4 9 1 4 5 2 4 7 14 12 18 16 6 9 14 15 13 13 13 13 14 13 12 12 13 13 13 14 14 13 11 9 7 8 9 10 8 8 8 7 8
6 6 7 11 17 13 7 6 4 5 6 1 3 10 4 6 7 13 17 11 5 7 12 19 11 12 13 14 14 13 13 12 12 13 13 14 14 13 12 10 8 7 8 8 9 8 8 7 7
8 8 13 15 17 17 3 9 12 11 10 7 8 11 5 3 11 16 14 7 4 5 11 14 10 9 12 13 13 13 12 12 12 13 13 13 13 12 11 11 9 7 7 7 8 9 7 8 7
9 6 13 14 17 14 4 8 11 10 11 10 9 8 5 9 13 13 12 11 1 4 6 11 9 6 10 11 12 12 11 12 12 13 12 12 12 11 11 11 9 8 8 8 8 7 8 6 7
13 13 15 18 18 15 6 10 12 12 12 9 9 10 8 12 12 13 10 7 4 3 5 8 12 11 5 7 9 10 11 11 11 11 11 10 10 10 11 10 10 9 7 8 7 8 7 7 7
10 11 19 16 14 15 7 7 9 13 10 6 5 6 4 12 10 13 13 5 1 4 6 6 11 13 12 11 6 8 9 10 10 10 10 9 8 8 9 8 9 10 9 8 7 6 8 7 6
8 10 13 16 14 9 5 5 9 13 10 12 5 9 14 13 13 15 13 14 1 4 7 7 10 14 13 13 11 9 8 8 9 9 8 9 10 11 12 12 12 9 9 8 9 8 7 8 5
9 11 15 10 12 13 12 12 15 15 16 13 12 11 5 14 17 18 17 13 13 7 9 11 10 15 15 12 14 13 12 12 12 12 13 11 11 11 12 11 10 8 9 9 9 8 8 8 8
8 13 14 12 9 9 13 16 17 20 20 18 21 21 20 20 21 20 18 16 14 13 7 13 12 13 15 13 11 9 9 9 10 14 12 12 10 7 8 7 8 9 9 8 9 8 8 11 6
9 13 7 12 12 12 16 19 19 20 22 22 21 19 20 20 17 18 16 16 16 15 13 11 15 15 14 11 10 10 10 10 10 12 13 10 8 8 8 8 8 9 8 10 10 8 9 10 7
15 15 8 8 12 15 18 19 21 22 20 19 18 14 17 17 17 17 19 18 17 17 14 13 11 14 13 13 11 10 10 10 11 12 14 11 12 9 10 8 8 7 8 7 6 8 9 7 8
10 11 15 16 16 16 17 16 15 17 17 14 14 15 18 19 20 20 20 21 19 18 17 14 14 12 16 14 14 10 11 11 9 9 10 15 11 9 9 7 7 8 8 6 5 6 5 7 8
8 14 16 17 4 9 13 15 13 9 17 13 14 18 22 22 21 20 19 20 21 19 19 15 11 13 14 16 14 12 12 12 13 13 15 12 15 11 11 11 7 11 10 10 7 6 5 7 4
14 15 12 10 6 12 6 17 14 11 11 20 23 19 20 23 21 19 18 18 20 23 20 17 15 14 16 15 14 13 12 11 12 12 12 14 17 14 12 8 10 9 8 7 8 8 7 8 6
16 9 7 14 7 7 9 18 14 17 17 19 19 18 18 19 19 18 19 17 20 20 22 19 16 17 17 18 15 14 14 12 12 12 12 17 14 16 12 7 9 11 11 8 9 8 8 8 8
15 16 15 16 11 14 18 20 17 17 20 18 15 17 20 22 24 26 27 26 20 19 20 18 17 20 15 15 16 14 12 12 11 12 13 16 14 16 13 11 10 9 9 9 7 8 7 8 9
12 13 15 14 11 14 18 21 20 19 9 16 16 18 20 23 26 26 26 26 25 18 18 21 20 21 18 14 13 15 14 12 12 12 17 15 15 16 13 10 10 9 10 10 10 8 9 9 9
11 14 15 12 7 11 20 21 17 11 13 13 17 18 20 21 22 23 23 25 24 23 18 18 20 20 19 12 13 15 13 13 13 13 16 18 17 17 17 16 13 12 8 10 11 11 7 10 8
10 12 13 16 15 19 19 18 13 3 16 18 19 20 20 22 22 23 22 22 22 20 21 22 22 21 20 20 12 14 13 13 14 14 13 16 18 17 16 16 13 11 12 12 11 12 13 9 7
10 9 12 13 12 10 10 15 9 12 15 20 20 20 21 22 20 21 21 21 19 18 17 19 22 20 18 21 15 19 18 15 14 12 12 13 15 17 18 17 16 14 12 13 12 10 11 10 8
5 9 13 14 14 14 14 8 12 9 16 21 20 20 20 19 19 19 20 21 18 15 14 15 18 17 15 14 14 15 19 13 11 12 13 13 13 14 13 15 15 15 11 13 12 14 13 11 10
9 12 15 11 9 9 4 6 9 8 11 16 18 20 20 19 19 18 19 20 18 15 15 13 15 14 15 12 15 14 16 11 1 8 6 6 4 5 6 8 11 12 12 12 12 13 14 13 12
7 11 6 6 8 11 8 9 7 10 11 14 16 18 20 20 19 19 21 19 19 18 17 14 13 14 14 10 13 14 9 4 3 4 14 7 5 6 10 9 7 6 9 11 11 12 14 15 13
6 6 7 7 8 13 19 3 6 6 12 13 12 15 18 21 20 20 21 18 18 19 17 16 13 13 13 13 13 13 15 9 7 7 4 3 6 5 5 7 9 7 6 7 11 10 11 13 13
4 7 7 9 16 11 3 4 3 10 13 11 15 17 17 18 20 21 22 19 16 18 18 17 13 13 13 13 13 15 15 15 14 14 9 8 8 8 9 7 7 10 8 9 10 9 13 14 13
12 1 5 6 6 7 3 5 5 13 14 15 14 15 18 17 18 20 19 19 17 16 15 15 14 14 14 13 15 14 16 13 13 12 15 12 10 11 11 13 8 9 10 12 10 9 11 13 10
6 9 9 12 9 6 9 5 6 7 9 12 12 13 14 15 16 16 17 16 16 15 14 15 15 16 15 17 16 16 15 15 12 13 13 11 12 14 14 13 15 9 8 10 8 9 11 12 12
3 9 11 9 9 7 6 4 5 4 8 11 13 14 14 12 14 14 15 15 17 16 18 18 17 18 16 16 17 16 14 14 13 14 15 16 16 15 15 14 16 18 15 16 16 10 10 12 13
Wind_Direction
263 234 258 256 244 232 266 232 265 232 212 60 21 334 329 310 297 333 76 33 35 205 144 166 159 150 146 142 141 144 152 153 154 153 151 148 150 151 157 149 146 149 149 154 143 140 137 135 133
283 258 239 271 255 244 247 191 196 0 35 357 285 262 240 265 342 336 351 6 343 238 149 176 161 149 149 145 139 140 151 156 156 156 153 150 152 154 156 154 153 149 150 156 151 139 125 122 117
261 258 267 234 239 259 302 42 54 69 191 307 295 143 316 298 20 355 348 333 320 218 155 165 157 151 150 144 139 140 148 153 156 156 154 152 154 154 153 153 159 149 152 155 153 137 125 119 123
222 204 246 254 261 263 282 91 60 267 291 51 344 290 11 84 4 2 349 352 303 179 165 131 150 156 150 147 144 143 146 149 151 151 155 157 159 157 153 152 159 156 154 155 147 135 128 129 128
235 262 253 243 253 266 236 291 298 287 298 304 310 296 303 102 20 5 358 9 313 173 144 147 146 160 151 152 148 144 148 149 149 151 158 160 161 157 152 154 162 162 158 147 131 131 131 131 136
240 252 255 257 258 246 213 290 283 299 273 275 264 297 267 115 24 358 7 354 312 186 160 141 147 171 155 155 151 149 152 152 153 151 156 161 161 156 157 162 166 173 175 148 133 138 138 141 149
253 265 260 279 283 291 271 256 288 309 311 307 355 286 285 53 12 340 32 8 343 207 204 131 178 180 151 151 152 152 156 158 155 154 157 158 160 158 163 170 173 175 180 150 151 150 149 152 156
292 274 272 267 270 270 301 353 305 283 314 357 290 296 258 25 344 332 349 34 7 226 194 153 182 187 185 181 144 152 158 159 157 161 155 152 153 164 167 175 182 176 169 157 155 161 155 152 157
259 260 260 270 282 294 27 272 284 328 281 286 277 279 303 328 328 330 328 319 58 205 216 178 191 189 193 189 175 165 163 157 156 156 146 157 189 184 177 198 159 179 168 161 159 162 163 145 143
250 263 271 355 335 333 339 317 305 304 296 294 284 273 267 322 316 312 307 303 314 297 205 206 208 198 196 200 178 194 189 193 193 190 179 199 205 187 195 187 165 172 168 160 162 164 156 191 177
270 257 301 328 357 326 300 293 298 299 288 293 313 317 305 305 301 293 294 297 292 294 251 210 190 219 201 208 191 190 197 199 198 193 190 204 203 181 209 183 178 196 185 186 176 173 199 202 234
269 271 281 298 307 297 287 300 290 287 292 297 293 298 299 288 300 302 299 296 297 297 292 217 217 204 213 219 199 194 202 193 197 198 197 194 211 183 197 194 197 204 183 213 187 189 208 208 216
258 265 297 294 276 272 283 281 286 282 285 289 294 304 300 300 309 310 309 306 300 289 279 273 222 213 208 217 209 200 221 196 203 193 191 200 205 203 192 202 208 193 202 215 193 215 191 200 221
344 291 283 280 276 275 287 298 293 286 285 303 303 299 302 303 302 298 295 296 296 295 292 267 230 213 214 213 231 201 196 199 203 222 212 196 205 199 186 206 201 197 202 202 210 221 184 217 209
277 278 275 264 349 284 332 281 261 15 343 305 293 295 298 299 298 292 285 281 284 284 282 272 263 211 214 215 213 222 205 210 187 205 202 206 212 207 201 193 206 219 182 202 202 245 204 221 189
251 260 269 126 201 295 283 288 268 340 300 296 298 300 300 299 303 300 296 290 283 278 278 282 279 211 206 218 221 219 212 197 206 203 201 199 216 219 190 218 192 201 221 202 208 201 205 231 188
212 273 278 300 298 308 268 295 294 308 299 292 295 297 299 301 301 306 308 299 294 288 278 275 268 267 204 204 221 221 206 202 210 197 204 193 202 218 187 191 226 178 209 206 210 221 211 220 217
327 311 308 300 316 305 297 290 305 301 299 303 317 343 348 348 343 341 330 324 317 307 311 317 298 296 224 205 213 216 215 195 205 205 206 197 197 203 211 186 200 212 211 198 194 198 220 224 235
294 288 285 290 304 301 288 293 304 309 347 14 0 354 345 341 343 331 327 322 320 315 315 314 306 298 293 201 212 216 209 197 193 214 203 205 195 194 205 208 193 196 209 195 195 195 207 217 220
282 281 280 298 308 284 293 298 297 309 74 37 10 351 342 339 335 326 327 322 319 327 307 314 304 295 293 244 202 221 205 204 194 204 194 202 203 190 197 198 199 191 202 193 186 195 204 216 211
268 284 299 308 311 271 261 287 316 302 87 29 5 354 342 338 335 328 326 324 321 322 325 315 302 294 284 287 239 215 212 205 201 198 200 196 199 195 194 198 206 185 200 199 193 195 208 206 197
288 6 311 292 295 304 320 299 29 17 26 9 0 350 351 340 336 332 332 327 323 321 319 309 308 301 308 326 309 205 218 204 202 200 198 199 201 200 188 203 207 199 194 223 186 192 198 203 197
297 334 299 293 285 294 277 247 85 28 1 356 358 351 354 343 337 341 338 334 325 328 320 315 311 308 314 331 319 266 226 214 197 194 187 193 184 203 208 188 213 209 211 200 205 186 201 201 204
297 288 269 256 268 263 174 264 64 21 349 346 357 352 357 353 347 346 349 342 334 336 331 320 328 331 331 354 343 326 238 251 44 359 204 126 120 147 251 223 210 223 216 196 212 194 196 201 213
238 266 287 228 212 253 18 303 62 26 19 6 0 354 0 358 354 353 356 347 340 337 340 329 343 340 342 15 11 5 21 308 155 33 352 78 158 172 209 227 244 243 217 207 210 209 206 209 211
284 307 291 298 310 324 305 343 93 62 49 13 15 2 6 3 359 356 359 348 347 341 337 339 351 340 353 25 39 25 22 33 34 36 117 359 341 12 285 203 215 210 201 221 222 207 211 215 215
114 235 324 296 272 253 159 90 192 45 17 17 9 1 6 360 357 356 356 353 346 342 341 344 355 358 7 24 43 44 32 28 34 33 2 34 348 344 338 306 204 212 204 220 215 232 221 221 219
240 337 268 222 263 271 343 159 56 2 357 360 10 4 358 357 355 353 353 353 346 346 342 351 358 16 19 31 41 42 37 36 40 41 27 10 1 358 354 337 290 232 217 221 218 232 240 228 220
186 235 234 263 269 273 294 89 22 10 3 3 8 9 0 356 354 351 350 353 348 349 351 6 7 11 31 39 44 49 45 48 45 47 39 14 18 18 17 4 1 327 242 235 219 232 237 238 224
279 261 243 238 259 266 281 99 38 44 17 17 10 8 4 360 356 354 352 356 357 354 0 9 11 19 21 40 43 42 41 48 53 46 45 32 28 28 31 31 30 20 10 14 15 309 223 229 228